Regional Weather Roundup
Issued by NWS

Home | Current Version | Previous Version | Text Only | Print | Product List | Glossary On
Versions: 1 2 3 4 5 6 7 8 9 10 11 12 13 14 15 16 17 18 19 20 21 22 23 24 25 26 27 28 29 30 31 32 33 34 35 36 37 38 39 40 41 42 43 44 45 46 47 48 49 50
000
ASUS43 KDMX 031303
RWRIA

WEATHER ROUNDUP FOR IOWA
NATIONAL WEATHER SERVICE DES MOINES IA
800 AM CDT TUE MAY 03 2016

NOTE: "FAIR" INDICATES FEW OR NO CLOUDS BELOW 12,000 FEET WITH NO
SIGNIFICANT WEATHER AND/OR OBSTRUCTIONS TO VISIBILITY.

* - THESE STATIONS ARE NOT NWS STATIONS...THUS NOT UNDER NWS
QUALITY CONTROL.  THEY ALSO DO NOT REPORT WEATHER SUCH
AS PRECIPITATION OR FOG.

IAZ001>003-012>014-020>022-031>034-043>046-031400-
   NORTHWEST IOWA

CITY           SKY/WX    TMP DP  RH WIND       PRES   REMARKS
CARROLL *        N/A     50  45  81 W8        30.04S
CHEROKEE *       N/A     41  41 100 CALM      30.04S
DENISON *      SUNNY     43  41  93 CALM      30.04R
LE MARS *        N/A     45  41  87 CALM      30.05S
ORANGE CITY *  SUNNY     45  41  87 CALM      30.03S
SHELDON *        N/A     46  41  81 CALM      30.02R
SIOUX CITY     PTSUNNY   48  44  86 CALM      30.05S
SPENCER          N/A     46  40  79 CALM      30.02F
STORM LAKE *   SUNNY     48  41  76 SW7       30.04S
$$

IAZ055>058-069>071-079>083-090>094-031400-
   SOUTHWEST IOWA

CITY           SKY/WX    TMP DP  RH WIND       PRES   REMARKS
ATLANTIC *       N/A     43  43 100 CALM      30.06S
AUDUBON *        N/A     45  43  93 CALM      30.06S
CLARINDA *       N/A    N/A N/A N/A MISG        N/A
COUNCIL BLFS * SUNNY     50  45  81 CALM      30.07R
CRESTON *        N/A     48  43  81 W6        30.07S
HARLAN  *        N/A     43  43 100 CALM      30.10R
LAMONI           N/A     51  45  79 W7        30.06R
SHENANDOAH *     N/A     48  46  93 CALM      30.08R
$$

IAZ047>049-059>061-072>074-084-031400-
   CENTRAL IOWA

CITY           SKY/WX    TMP DP  RH WIND       PRES   REMARKS
AMES             N/A     49  44  83 CALM      30.03S
ANKENY *         N/A     46  46 100 CALM      30.04S
BOONE *          N/A     50  43  76 W7        30.03S
CHARITON *       N/A     50  45  81 W5        30.05S
DES MOINES       N/A     49  43  80 CALM      30.05R
GRINNELL*        N/A     48  45  87 W6        30.04S
KNOXVILLE *      N/A     48  43  81 W6        30.04S
MARSHALLTOWN     N/A     48  43  82 W5        30.03S
NEWTON *         N/A     48  48 100 W5        30.04S
$$

IAZ004>006-015-016-023>025-035-036-031400-
   NORTH CENTRAL IOWA

CITY           SKY/WX    TMP DP  RH WIND       PRES   REMARKS
ALGONA *         N/A     50  43  76 W7        30.02S
CLARION *        N/A     46  43  87 SW3       30.02F FOG
ESTHERVILLE      N/A     50  44  80 W6        30.00F
FORT DODGE *     N/A     46  39  76 CALM      30.03F
MASON CITY       N/A     50  42  74 W9        30.01F
FOREST CITY *    N/A     45  43  93 SW5       30.00F
WEBSTER CITY *   N/A     48  45  87 W8        30.01S
IOWA FALLS *     N/A     50  45  81 W8        30.03S
$$

IAZ007>011-017>019-026>030-037>042-050>054-066-031400-
   NORTHEAST IOWA

CITY           SKY/WX    TMP DP  RH WIND       PRES   REMARKS
CEDAR RAPIDS     N/A     50  46  86 W8        30.01F
CHARLES CITY * SUNNY     50  45  81 W6        30.00F
CLINTON *        N/A     48  45  89 W7        30.01F
DECORAH *        N/A     50  43  76 VRB5      29.98S
DUBUQUE          N/A     51  43  74 NW8       30.00S
MONTICELLO *     N/A     50  45  81 W10       30.01S
OELWEIN *        N/A     48  46  93 W5        30.01S
WATERLOO         N/A     51  43  74 W8        30.01S
$$

IAZ064-065-067-068-078-031400-
   EAST CENTRAL IOWA

CITY           SKY/WX    TMP DP  RH WIND       PRES   REMARKS
DAVENPORT        N/A     49  42  77 NW7       30.02S
IOWA CITY        N/A     49  43  80 W9        30.04S
MT. PLEASANT *   N/A     54  46  76 W8        30.04S
MUSCATINE *      N/A     50  45  81 NW6       30.04R
QUAD CITIES      N/A     49  43  80 W3        30.01S
$$

IAZ062-063-075>077-085>089-095>099-031400-
   SOUTHEAST IOWA

CITY           SKY/WX    TMP DP  RH WIND       PRES   REMARKS
BURLINGTON       N/A     49  45  86 NW6       30.03S
FAIRFIELD *      N/A     48  45  87 W8        30.04S
FORT MADISON *   N/A     50  46  87 NW6       30.04S
KEOKUK *         N/A     52  46  82 NW6       30.04S
OSKALOOSA *      N/A     45  45 100 W6        30.05S
OTTUMWA          N/A     47  44  90 W3        30.05R
WASHINGTON *     N/A     50  48  93 W9        30.05S
$$

ABBREVIATIONS USED IN REMARKS
   TC - TEMPERATURES IN CELSIUS
  WCI - WIND CHILL INDEX
   HX - HEAT INDEX
  VSB - VISIBILITY
$$





USA.gov is the U.S. government's official web portal to all federal, state and local government web resources and services.